Location: Daytona Beach
(29.2106°N, 81.0231°W)
Time: 23:12:46
(UTC-04:00)

PSAT 2 - Pass Details

Date: 29 September 2021
Orbit: 299 x 725 km, 28.5° (Epoch: 15 October)

Event Time Altitude Azimuth Distance (km) Brightness Sun altitude
Rises 19:31:13 0° 274° (W) 2,955 ? -5.1°
Reaches altitude 10° 19:33:40 10° 266° (W) 2,098 ? -5.6°
Maximum altitude 19:38:14 36° 200° (SSW) 1,115 ? -6.6°
Drops below altitude 10° 19:43:02 10° 135° (SE) 2,210 ? -7.7°
Enters shadow 19:44:50 - 129° (SE) 2,829 ? -8.1°
